[[{"header":{"parameterUnit":"m.s-1","parameterCategory":1,"la1":30.2991,"la2":30.254,"lo1":-89.0895,"lo2":-89.0444,"dy":0.0017,"dx":0.0017,"nx":28,"ny":28,"refTime":"2024-05-21T21:00:00:Z","depth":0,"parameterNumber":2,"parameterNumberName":"U-component_of_WINDS"},"data":[0,0,0,0,0,0,0,0,0,0,0,0,0,0,0,0,0,0,0,0,0,0,0,0,0,0,0,0,0,0,0,0,0,0,0,0,0,0,0,0,0,0,0,0,0,0,0,0,0,0,0,0,0,0,0,0,0,0,-2.6504,-2.6505,0,-2.6538,-2.6538,-2.6539,-2.6506,-2.6505,-2.6503,-2.6502,-2.6538,-2.654,-2.6542,0,0,0,0,0,0,0,0,0,0,0,0,0,-2.6414,-2.6416,-2.6504,-2.6505,-2.6505,-2.6538,-2.6538,-2.6539,-2.6506,-2.6505,-2.6503,-2.6502,-2.6537,-2.654,-2.6542,0,0,0,0,0,0,0,0,0,0,0,0,0,-2.6451,-2.6416,-2.6504,-2.6493,-2.6492,-2.6538,-2.6538,-2.6539,-2.6507,-2.6505,-2.6503,-2.6501,-2.6536,-2.654,-2.6543,-2.6602,0,0,-2.6553,-2.6554,0,0,0,0,0,0,0,0,-2.6449,-2.6454,-2.6494,-2.6494,-2.6493,-2.6516,-2.6519,-2.656,-2.6507,-2.6501,-2.6502,-2.65,-2.6532,-2.6536,-2.6546,-2.6603,-2.6605,-2.6553,-2.6555,-2.6556,-2.6557,0,0,0,0,0,0,0,-2.6446,-2.6453,-2.6517,-2.6495,-2.6494,-2.6487,-2.649,-2.6527,-2.6527,-2.6501,-2.6499,-2.6504,-2.6532,-2.6543,-2.6547,-2.6605,-2.6553,-2.6556,-2.6558,-2.6559,-2.6713,-2.6715,0,0,0,0,0,0,-2.6445,-2.6451,-2.6516,-2.6518,-2.6466,-2.649,-2.6493,-2.651,-2.6527,-2.6527,-2.6505,-2.6502,-2.6539,-2.6543,-2.6548,-2.6618,-2.6556,-2.6559,-2.6561,-2.6711,-2.6713,-2.6716,0,0,0,0,0,0,-2.6443,-2.6451,-2.6515,-2.6484,-2.6492,-2.6493,-2.6513,-2.6512,-2.6524,-2.6529,-2.6529,-2.6517,-2.6537,-2.6543,-2.6589,-2.6619,-2.6561,-2.6564,-2.6708,-2.6712,-2.6715,-2.6758,0,0,0,0,0,0,-2.6441,-2.6451,-2.6472,-2.6485,-2.6493,-2.6554,-2.6515,-2.6514,-2.6529,-2.6525,-2.654,-2.6541,-2.6536,-2.6584,-2.6592,-2.6622,-2.6566,-2.6706,-2.671,-2.6714,-2.6754,-2.6762,-2.677,0,0,0,0,0,-2.6437,-2.6484,-2.6474,-2.6482,-2.6521,-2.6556,-2.6561,-2.6554,-2.6532,-2.6554,-2.6558,-2.6541,-2.6614,-2.6589,-2.6597,-2.6629,-2.6704,-2.6709,-2.6713,-2.675,-2.6761,-2.677,0,0,0,0,0,0,-2.6475,-2.6485,-2.6474,-2.6525,-2.654,-2.6551,-2.6578,-2.6565,-2.6587,-2.6583,-2.6574,-2.6577,-2.6625,-2.6632,-2.6603,-2.6687,-2.6655,-2.6662,-2.6681,-2.6691,-2.6698,-2.6695,-2.6569,0,0,0,0,0,-2.6489,-2.6517,-2.6524,-2.6569,-2.6577,-2.6577,-2.6592,-2.6585,-2.66,-2.6607,-2.6614,-2.663,-2.6656,-2.6674,-2.6699,-2.6755,-2.6758,-2.6782,-2.6789,-2.6796,-2.6802,-2.6832,-2.6842,-2.6732,-2.6732,-2.6731,0,0,-2.6519,-2.6528,-2.6546,-2.6577,-2.6587,-2.6616,-2.6582,-2.6614,-2.6636,-2.6612,-2.6654,-2.666,-2.6678,-2.6729,-2.6751,-2.6736,-2.6833,-2.6802,-2.6807,-2.6809,-2.6838,-2.6849,-2.6858,-2.6735,-2.6734,-2.6734,0,0,-2.6587,-2.6597,-2.6635,-2.6647,-2.6663,-2.6663,-2.6672,-2.6685,-2.6688,-2.6731,-2.6713,-2.6739,-2.6786,-2.6799,-2.6811,-2.6886,-2.6871,-2.6895,-2.6935,-2.6965,-2.6974,-2.6982,-2.7008,-2.7018,-2.6901,-2.6901,-2.6901,0,-2.6622,-2.6665,-2.6657,-2.669,-2.6704,-2.6684,-2.6723,-2.6735,-2.6759,-2.6769,-2.6752,-2.6809,-2.682,-2.6873,-2.6892,-2.6903,-2.6913,-2.6892,-2.6973,-2.6981,-2.6988,-2.7013,-2.7023,-2.6903,-2.6903,-2.6903,-2.6903,0,-2.6707,-2.6737,-2.6766,-2.6789,-2.6807,-2.6843,-2.6841,-2.686,-2.6853,-2.6854,-2.6899,-2.691,-2.6937,-2.695,-2.6943,-2.7003,-2.6993,-2.6974,-2.6942,-2.7001,-2.7025,-2.7034,-2.6907,-2.6906,-2.6906,-2.6905,0,0,-2.6799,-2.6818,-2.6828,-2.6839,-2.6856,-2.6879,-2.6915,-2.6941,-2.6958,-2.6976,-2.7006,-2.7046,-2.7029,-2.7043,-2.7038,-2.7064,-2.7123,-2.7043,-2.7043,-2.7057,-2.719,-2.7203,-2.7214,-2.7114,-2.7115,-2.7117,-2.7188,0,-2.6868,-2.6929,-2.6923,-2.6981,-2.7009,-2.699,-2.7021,-2.7036,-2.7039,-2.7064,-2.7067,-2.7096,-2.7071,-2.708,-2.7105,-2.711,-2.7149,-2.7105,-2.7141,-2.7143,-2.7137,-2.7227,-2.724,-2.7307,-2.7197,-2.7199,-2.72,0,-2.6956,-2.6976,-2.7037,-2.705,-2.7062,-2.709,-2.7113,-2.7137,-2.7154,-2.7154,-2.7171,-2.7161,-2.7198,-2.7165,-2.7216,-2.7186,-2.7201,-2.7206,-2.7208,-2.7211,-2.7174,-2.7231,-2.7328,-2.7338,-2.7215,-2.7213,-2.7212,0,-2.7016,-2.7059,-2.7101,-2.7111,-2.7127,-2.7148,-2.7156,-2.717,-2.7186,-2.7207,-2.7218,-2.7243,-2.7257,-2.7278,-2.7275,-2.7252,-2.7327,-2.7295,-2.7329,-2.7329,-2.7344,-2.7343,-2.7445,-2.7355,-2.7355,-2.7355,-2.7355,0,-2.7093,-2.7131,-2.7128,-2.7154,-2.7196,-2.719,-2.7232,-2.7238,-2.7251,-2.7278,-2.7264,-2.729,-2.7286,-2.7312,-2.7311,-2.7353,-2.736,-2.7361,-2.736,-2.7362,-2.7362,-2.7371,-2.7366,-2.7358,-2.7357,-2.7357,-2.7356,0,-2.7168,-2.7167,-2.7212,-2.7224,-2.7228,-2.7259,-2.7269,-2.7294,-2.7296,-2.7331,-2.7339,-2.7342,-2.7373,-2.7373,-2.7407,-2.7406,-2.7458,-2.7452,-2.7452,-2.7451,-2.7485,-2.7481,-2.7595,-2.761,-2.7511,-2.7512,-2.7513,0,-2.7217,-2.7245,-2.726,-2.7277,-2.7286,-2.7314,-2.733,-2.7325,-2.7343,-2.7364,-2.7387,-2.7415,-2.7438,-2.7487,-2.7494,-2.752,-2.7515,-2.7553,-2.7519,-2.752,-2.7515,-2.7513,-2.7516,-2.7559,-2.756,-2.7561,-2.7562,0,-2.7303,-2.7302,-2.7325,-2.7349,-2.7369,-2.7388,-2.7405,-2.742,-2.7417,-2.7438,-2.7469,-2.7486,-2.7522,-2.7551,-2.7576,-2.7585,-2.7574,-2.7573,-2.7582,-2.7584,-2.7582,-2.7583,-2.747,-2.757,-2.7569,-2.7569,-2.7568,-2.7568,-2.7366,-2.739,-2.7405,-2.7432,-2.7445,-2.7461,-2.7485,-2.749,-2.7515,-2.7543,-2.7539,-2.7573,-2.759,-2.7623,-2.7634,-2.7661,-2.7648,-2.7662,-2.7665,-2.7668,-2.7672,-2.7579,-2.7666,-2.7666,-2.7666,-2.7666,-2.7665,0,-2.7451,-2.746,-2.7485,-2.7509,-2.7531,-2.7517,-2.7536,-2.7555,-2.7585,-2.7601,-2.7624,-2.7659,-2.7687,-2.7696,-2.7723,-2.7743,-2.7739,-2.7751,-2.7749,-2.7751,-2.7682,-2.7671,-2.7754,-2.7754,-2.7754,-2.7754,-2.7754,-2.7754,-2.7498,-2.7539,-2.754,-2.7587,-2.7595,-2.7628,-2.764,-2.7655,-2.7668,-2.7707,-2.7731,-2.7736,-2.7749,-2.7778,-2.7803,-2.7805,-2.7816,-2.783,-2.783,-2.7765,-2.7756,-2.7748,-2.7737,-2.7833,-2.7833,-2.7897,-2.7897,-2.7898]},{"header":{"parameterUnit":"m.s-1","parameterCategory":1,"la1":30.2991,"la2":30.254,"lo1":-89.0895,"lo2":-89.0444,"dy":0.0017,"dx":0.0017,"nx":28,"ny":28,"refTime":"2024-05-21T21:00:00:Z","depth":0,"parameterNumber":3,"parameterNumberName":"V-component_of_WINDS"},"data":[0,0,0,0,0,0,0,0,0,0,0,0,0,0,0,0,0,0,0,0,0,0,0,0,0,0,0,0,0,0,0,0,0,0,0,0,0,0,0,0,0,0,0,0,0,0,0,0,0,0,0,0,0,0,0,0,0,0,3.6611,3.6611,0,3.6615,3.6615,3.6615,3.6603,3.6603,3.6602,3.6602,3.6605,3.6606,3.6606,0,0,0,0,0,0,0,0,0,0,0,0,0,3.6593,3.6594,3.6611,3.6611,3.6611,3.6615,3.6615,3.6615,3.6603,3.6603,3.6602,3.6602,3.6605,3.6606,3.6606,0,0,0,0,0,0,0,0,0,0,0,0,0,3.6599,3.6594,3.6611,3.6606,3.6605,3.6615,3.6615,3.6615,3.6603,3.6603,3.6602,3.6602,3.6605,3.6606,3.6606,3.6621,0,0,3.6608,3.6609,0,0,0,0,0,0,0,0,3.6599,3.66,3.6606,3.6606,3.6605,3.6608,3.661,3.6617,3.6603,3.6604,3.6602,3.6601,3.6607,3.6607,3.6609,3.6621,3.6621,3.6608,3.6609,3.6609,3.6609,0,0,0,0,0,0,0,3.6599,3.66,3.6612,3.6606,3.6606,3.6603,3.6603,3.6611,3.6608,3.6604,3.6603,3.6604,3.6606,3.6608,3.6609,3.6621,3.6608,3.6609,3.6609,3.661,3.6645,3.6646,0,0,0,0,0,0,3.6599,3.6599,3.6612,3.6612,3.6601,3.6604,3.6604,3.6608,3.6608,3.6608,3.6604,3.6603,3.6608,3.6608,3.6609,3.6626,3.6609,3.661,3.661,3.6645,3.6645,3.6646,0,0,0,0,0,0,3.6598,3.66,3.6612,3.6606,3.6607,3.6605,3.6609,3.6608,3.661,3.6608,3.6608,3.6607,3.6607,3.6608,3.6618,3.6626,3.661,3.661,3.6644,3.6645,3.6646,3.6659,0,0,0,0,0,0,3.6598,3.66,3.6606,3.6606,3.6607,3.6621,3.6609,3.6608,3.6611,3.661,3.6611,3.661,3.6607,3.6617,3.6619,3.6626,3.6611,3.6643,3.6644,3.6645,3.6658,3.6661,3.6663,0,0,0,0,0,3.6597,3.6609,3.6606,3.6607,3.6614,3.6621,3.6622,3.6618,3.6612,3.6617,3.6616,3.661,3.6625,3.6618,3.662,3.6628,3.6643,3.6644,3.6645,3.6657,3.666,3.6663,0,0,0,0,0,0,3.661,3.6609,3.6605,3.6618,3.662,3.662,3.6626,3.6622,3.6625,3.6624,3.6619,3.6619,3.663,3.663,3.6623,3.6642,3.6633,3.6634,3.6641,3.6644,3.6646,3.6646,3.6612,0,0,0,0,0,3.6614,3.662,3.6619,3.663,3.6631,3.6629,3.6632,3.6629,3.663,3.6631,3.6631,3.6633,3.6637,3.6641,3.6645,3.6659,3.6658,3.6665,3.6667,3.6669,3.667,3.6677,3.6679,3.665,3.665,3.665,0,0,3.6622,3.6623,3.6627,3.6633,3.6634,3.664,3.6629,3.6636,3.6641,3.6632,3.6641,3.6641,3.6643,3.6654,3.6659,3.6655,3.6678,3.667,3.6672,3.6672,3.6678,3.6681,3.6684,3.6651,3.6651,3.6651,0,0,3.6641,3.6642,3.6651,3.6653,3.6655,3.6653,3.6655,3.6656,3.6655,3.6665,3.6658,3.6663,3.6672,3.6673,3.6675,3.6695,3.6689,3.6697,3.6708,3.6714,3.6717,3.6719,3.6725,3.6728,3.6698,3.6698,3.6698,0,3.6651,3.6661,3.6657,3.6664,3.6667,3.6659,3.6668,3.667,3.6673,3.6675,3.667,3.6681,3.6681,3.6693,3.6698,3.67,3.6702,3.6696,3.6717,3.6719,3.6721,3.6727,3.6729,3.6699,3.6699,3.6699,3.6699,0,3.6673,3.6679,3.6687,3.669,3.6693,3.6702,3.6699,3.6703,3.6699,3.6698,3.6707,3.6708,3.6712,3.6715,3.6712,3.6726,3.6723,3.6718,3.6708,3.6724,3.673,3.6732,3.67,3.67,3.67,3.6699,0,0,3.6699,3.67,3.6703,3.6704,3.6706,3.6711,3.6719,3.6723,3.6726,3.6729,3.6735,3.6743,3.6738,3.674,3.6737,3.6743,3.6758,3.6736,3.6736,3.674,3.6773,3.6777,3.678,3.6754,3.6755,3.6755,3.6773,0,3.6717,3.673,3.6727,3.674,3.6746,3.6739,3.6746,3.6748,3.6747,3.6752,3.6751,3.6756,3.6749,3.675,3.6756,3.6755,3.6764,3.6754,3.676,3.676,3.6759,3.6783,3.6787,3.6803,3.6775,3.6775,3.6776,0,3.6739,3.6743,3.6757,3.6758,3.676,3.6766,3.677,3.6775,3.6776,3.6775,3.6778,3.6774,3.6781,3.6773,3.6783,3.6776,3.6778,3.6778,3.6778,3.6778,3.6768,3.6783,3.6808,3.6811,3.6779,3.6779,3.6779,0,3.6756,3.6765,3.6774,3.6775,3.6777,3.6781,3.6782,3.6783,3.6786,3.6789,3.6791,3.6795,3.6798,3.6801,3.6798,3.6792,3.6808,3.6799,3.6807,3.6807,3.6811,3.681,3.6836,3.6813,3.6813,3.6813,3.6813,0,3.6776,3.6785,3.6781,3.6787,3.6796,3.6793,3.6802,3.6802,3.6803,3.6809,3.6803,3.6809,3.6805,3.6809,3.6807,3.6816,3.6817,3.6816,3.6815,3.6816,3.6816,3.6817,3.6816,3.6814,3.6814,3.6814,3.6814,0,3.6796,3.6794,3.6804,3.6805,3.6805,3.6812,3.6812,3.6817,3.6816,3.6823,3.6824,3.6823,3.6828,3.6826,3.6831,3.683,3.6841,3.6839,3.684,3.6839,3.6847,3.6846,3.6874,3.6878,3.6853,3.6853,3.6853,0,3.6809,3.6815,3.6817,3.682,3.6821,3.6826,3.6829,3.6826,3.6829,3.6832,3.6837,3.6842,3.6845,3.6854,3.6853,3.6857,3.6855,3.6865,3.6856,3.6856,3.6854,3.6854,3.6854,3.6866,3.6867,3.6867,3.6867,0,3.6831,3.683,3.6834,3.6839,3.6842,3.6845,3.6848,3.6851,3.6848,3.6852,3.6857,3.686,3.6866,3.6871,3.6874,3.6875,3.687,3.687,3.6872,3.6873,3.6873,3.6872,3.6844,3.6869,3.6869,3.6869,3.6869,3.6869,3.6847,3.6853,3.6854,3.6859,3.6861,3.6864,3.6869,3.6868,3.6873,3.6877,3.6875,3.6881,3.6883,3.6887,3.6889,3.6893,3.689,3.6893,3.6893,3.6894,3.6895,3.6873,3.6894,3.6894,3.6894,3.6894,3.6894,0,3.6869,3.687,3.6875,3.6878,3.6882,3.6878,3.6881,3.6884,3.689,3.6892,3.6896,3.6902,3.6907,3.6906,3.6911,3.6914,3.6912,3.6916,3.6915,3.6915,3.6898,3.6896,3.6917,3.6917,3.6917,3.6917,3.6917,3.6917,3.6881,3.6889,3.6888,3.6898,3.6898,3.6904,3.6906,3.6909,3.691,3.6917,3.6921,3.6921,3.6922,3.6926,3.693,3.693,3.6932,3.6936,3.6934,3.6919,3.6916,3.6914,3.6912,3.6936,3.6936,3.6951,3.6951,3.6951]}]]